Location: Bottenau
(48.5138°N, 8.0462°E)
Time: 04:44:17
(UTC+00:00)

Ariane Rocket - Pass Details

Date: 18 April 2021
Orbit: 760 x 770 km, 98.7° (Epoch: 09 May)

Event Time Altitude Azimuth Distance (km) Brightness Sun altitude
Exits shadow 20:07:30 - 187° (S) 2,799 5.6 -15.9°
Reaches altitude 10° 20:08:51 10° 192° (SSW) 2,290 5.2 -16.1°
Maximum altitude 20:13:35 40° 262° (W) 1,112 4.2 -16.7°
Drops below altitude 10° 20:18:21 10° 332° (NNW) 2,303 6.6 -17.3°
Sets 20:20:48 0° 340° (NNW) 3,233 7.3 -17.6°
